When you browse on this site, cookies collect data to enhance your experience and personalize the content and advertising you see.
Visit our Privacy Policy to learn more. By continuing to use the site, you agree to this use of cookies and data.
  • In Latvia
  • List of Countries
  • For 7 days
  • Water Temperature
  • Satellite Maps
  • Weather Map
  • Weather Widgets
  • user-avatar
    Login

    Hourly Weather Sydney

    Today, 23 July, Tuesday

    Time Temperature Precipitation Wind Pressure Humidity
    00:00 +12°C° 0 mm 3 mps 761 mmHg 69%
    01:00 +12°C° 0 mm 4 mps 761 mmHg 69%
    02:00 +11°C° 0 mm 4 mps 761 mmHg 71%
    03:00 +11°C° 0 mm 4 mps 760 mmHg 72%
    04:00 +11°C° 0 mm 4 mps 760 mmHg 74%
    05:00 +10°C° 0 mm 4 mps 761 mmHg 76%
    06:00 +10°C° 0 mm 4 mps 761 mmHg 78%
    07:00 +8°C° 0 mm 4 mps 761 mmHg 80%
    08:00 +12°C° 0 mm 4 mps 761 mmHg 67%
    09:00 +14°C° 0 mm 4 mps 761 mmHg 55%
    10:00 +17°C° 0 mm 4 mps 761 mmHg 42%
    11:00 +19°C° 0 mm 4 mps 761 mmHg 34%
    12:00 +22°C° 0 mm 4 mps 760 mmHg 27%
    13:00 +25°C° 0 mm 4 mps 759 mmHg 20%
    14:00 +23°C° 0 mm 4 mps 759 mmHg 21%
    15:00 +23°C° 0 mm 5 mps 759 mmHg 22%
    16:00 +22°C° 0 mm 5 mps 759 mmHg 24%
    17:00 +20°C° 0 mm 5 mps 760 mmHg 28%
    18:00 +19°C° 0 mm 5 mps 760 mmHg 33%
    19:00 +17°C° 0 mm 4 mps 761 mmHg 37%
    20:00 +15°C° 0 mm 5 mps 761 mmHg 40%
    21:00 +14°C° 0 mm 5 mps 761 mmHg 42%
    22:00 +13°C° 0 mm 6 mps 761 mmHg 45%
    23:00 +13°C° 0 mm 6 mps 761 mmHg 46%

    Tomorrow, 24 July, Wednesday

    Time Temperature Precipitation Wind Pressure Humidity
    00:00 +13°C° 0 mm 5 mps 761 mmHg 47%
    01:00 +12°C° 0 mm 5 mps 760 mmHg 48%
    02:00 +12°C° 0 mm 5 mps 760 mmHg 50%
    03:00 +12°C° 0 mm 4 mps 760 mmHg 53%
    04:00 +11°C° 0 mm 3 mps 760 mmHg 55%
    05:00 +11°C° 0 mm 3 mps 761 mmHg 56%
    06:00 +11°C° 0 mm 3 mps 761 mmHg 58%
    07:00 +12°C° 0 mm 2 mps 762 mmHg 59%
    08:00 +12°C° 0 mm 3 mps 763 mmHg 54%
    09:00 +14°C° 0 mm 4 mps 763 mmHg 49%
    10:00 +16°C° 0 mm 5 mps 764 mmHg 44%
    11:00 +17°C° 0 mm 5 mps 763 mmHg 38%
    12:00 +19°C° 0 mm 5 mps 763 mmHg 32%
    13:00 +20°C° 0 mm 4 mps 763 mmHg 27%
    14:00 +19°C° 0 mm 5 mps 763 mmHg 29%
    15:00 +17°C° 0 mm 5 mps 763 mmHg 32%
    16:00 +17°C° 0 mm 5 mps 764 mmHg 35%
    17:00 +15°C° 0 mm 4 mps 764 mmHg 47%
    18:00 +14°C° 0 mm 4 mps 765 mmHg 58%
    19:00 +12°C° 0 mm 4 mps 766 mmHg 69%
    20:00 +11°C° 0 mm 4 mps 767 mmHg 65%
    21:00 +11°C° 0 mm 4 mps 767 mmHg 60%
    22:00 +10°C° 0 mm 4 mps 768 mmHg 56%
    23:00 +10°C° 0 mm 4 mps 768 mmHg 58%

    Day after tomorrow, 25 July, Thursday

    Time Temperature Precipitation Wind Pressure Humidity
    00:00 +9°C° 0 mm 3 mps 768 mmHg 61%
    01:00 +8°C° 0 mm 3 mps 768 mmHg 63%
    02:00 +8°C° 0 mm 3 mps 768 mmHg 65%
    03:00 +7°C° 0 mm 3 mps 768 mmHg 68%
    04:00 +7°C° 0 mm 3 mps 767 mmHg 70%
    05:00 +5°C° 0 mm 3 mps 768 mmHg 71%
    06:00 +5°C° 0 mm 3 mps 768 mmHg 72%
    07:00 +5°C° 0 mm 3 mps 769 mmHg 73%
    08:00 +8°C° 0 mm 3 mps 769 mmHg 64%
    09:00 +10°C° 0 mm 3 mps 769 mmHg 55%
    10:00 +13°C° 0 mm 3 mps 769 mmHg 45%
    11:00 +15°C° 0 mm 2 mps 768 mmHg 43%
    12:00 +17°C° 0 mm 2 mps 767 mmHg 40%
    13:00 +20°C° 0 mm 1 mps 766 mmHg 37%
    14:00 +18°C° 0 mm 2 mps 766 mmHg 38%
    15:00 +18°C° 0 mm 2 mps 766 mmHg 39%
    16:00 +18°C° 0 mm 3 mps 766 mmHg 40%
    17:00 +16°C° 0 mm 3 mps 766 mmHg 50%
    18:00 +14°C° 0 mm 3 mps 767 mmHg 60%
    19:00 +12°C° 0 mm 3 mps 767 mmHg 70%
    20:00 +11°C° 0 mm 3 mps 767 mmHg 74%
    21:00 +11°C° 0 mm 3 mps 767 mmHg 79%
    22:00 +10°C° 0 mm 3 mps 767 mmHg 83%
    23:00 +10°C° 0 mm 3 mps 767 mmHg 83%

    26 July, Friday

    Time Temperature Precipitation Wind Pressure Humidity
    00:00 +9°C° 0 mm 2 mps 766 mmHg 84%
    01:00 +9°C° 0 mm 2 mps 766 mmHg 84%
    02:00 +9°C° 0 mm 2 mps 766 mmHg 84%
    03:00 +9°C° 0 mm 2 mps 765 mmHg 83%
    04:00 +8°C° 0 mm 2 mps 765 mmHg 83%
    05:00 +8°C° 0 mm 2 mps 765 mmHg 83%
    06:00 +8°C° 0 mm 2 mps 765 mmHg 83%
    07:00 +8°C° 0 mm 2 mps 765 mmHg 84%
    08:00 +10°C° 0 mm 3 mps 765 mmHg 76%
    09:00 +11°C° 0 mm 3 mps 764 mmHg 68%
    10:00 +13°C° 0 mm 3 mps 764 mmHg 60%
    11:00 +14°C° 0 mm 3 mps 764 mmHg 53%
    12:00 +17°C° 0 mm 2 mps 763 mmHg 46%
    13:00 +19°C° 0 mm 2 mps 762 mmHg 39%
    14:00 +19°C° 0 mm 2 mps 762 mmHg 39%
    15:00 +19°C° 0 mm 1 mps 762 mmHg 39%
    16:00 +19°C° 0 mm 1 mps 762 mmHg 39%
    17:00 +17°C° 0 mm 2 mps 762 mmHg 43%
    18:00 +16°C° 0 mm 2 mps 763 mmHg 47%
    19:00 +13°C° 0 mm 3 mps 763 mmHg 50%
    20:00 +13°C° 0 mm 4 mps 763 mmHg 52%
    21:00 +12°C° 0 mm 4 mps 764 mmHg 54%
    22:00 +12°C° 0 mm 5 mps 764 mmHg 56%
    23:00 +12°C° 0 mm 4 mps 764 mmHg 58%

    27 July, Saturday

    Time Temperature Precipitation Wind Pressure Humidity
    00:00 +12°C° 0 mm 4 mps 764 mmHg 60%
    01:00 +12°C° 0 mm 4 mps 764 mmHg 61%
    02:00 +11°C° 0 mm 4 mps 764 mmHg 64%
    03:00 +10°C° 0 mm 4 mps 764 mmHg 67%
    04:00 +10°C° 0 mm 3 mps 764 mmHg 70%
    05:00 +9°C° 0 mm 3 mps 764 mmHg 73%
    06:00 +9°C° 0 mm 3 mps 765 mmHg 75%
    07:00 +9°C° 0 mm 3 mps 765 mmHg 78%
    08:00 +11°C° 0 mm 3 mps 765 mmHg 69%
    09:00 +13°C° 0 mm 3 mps 765 mmHg 60%
    10:00 +16°C° 0 mm 3 mps 765 mmHg 52%
    11:00 +17°C° 0 mm 3 mps 765 mmHg 48%
    12:00 +18°C° 0 mm 4 mps 764 mmHg 44%
    13:00 +19°C° 0 mm 4 mps 764 mmHg 40%
    14:00 +19°C° 0 mm 4 mps 764 mmHg 47%
    15:00 +18°C° 0 mm 4 mps 764 mmHg 54%
    16:00 +16°C° 0 mm 5 mps 764 mmHg 61%
    17:00 +15°C° 0 mm 4 mps 764 mmHg 67%
    18:00 +14°C° 0 mm 3 mps 765 mmHg 74%
    19:00 +13°C° 0 mm 3 mps 765 mmHg 80%
    20:00 +12°C° 0.1 mm 3 mps 766 mmHg 82%
    21:00 +13°C° 0.1 mm 2 mps 766 mmHg 84%
    22:00 +13°C° 0.1 mm 2 mps 766 mmHg 85%
    23:00 +12°C° 0.1 mm 2 mps 766 mmHg 87%

    28 July, Sunday

    Time Temperature Precipitation Wind Pressure Humidity
    00:00 +12°C° 0.1 mm 2 mps 766 mmHg 89%
    01:00 +10°C° 0.1 mm 2 mps 766 mmHg 91%
    02:00 +10°C° 0 mm 2 mps 766 mmHg 91%
    03:00 +9°C° 0 mm 2 mps 766 mmHg 91%
    04:00 +9°C° 0 mm 2 mps 766 mmHg 92%
    05:00 +9°C° 0 mm 3 mps 766 mmHg 90%
    06:00 +8°C° 0 mm 3 mps 766 mmHg 89%
    07:00 +8°C° 0 mm 3 mps 767 mmHg 87%
    08:00 +10°C° 0 mm 3 mps 767 mmHg 77%
    09:00 +12°C° 0 mm 3 mps 767 mmHg 67%
    10:00 +14°C° 0 mm 3 mps 767 mmHg 57%
    11:00 +16°C° 0 mm 2 mps 766 mmHg 49%
    12:00 +18°C° 0 mm 2 mps 765 mmHg 42%
    13:00 +20°C° 0 mm 1 mps 765 mmHg 34%
    14:00 +19°C° 0 mm 2 mps 765 mmHg 37%
    15:00 +18°C° 0 mm 3 mps 765 mmHg 39%
    16:00 +18°C° 0 mm 3 mps 765 mmHg 41%
    17:00 +16°C° 0 mm 3 mps 765 mmHg 50%
    18:00 +14°C° 0 mm 2 mps 766 mmHg 59%
    19:00 +13°C° 0 mm 2 mps 766 mmHg 67%
    20:00 +12°C° 0 mm 2 mps 766 mmHg 70%
    21:00 +12°C° 0 mm 1 mps 766 mmHg 73%
    22:00 +12°C° 0 mm 1 mps 766 mmHg 75%
    23:00 +11°C° 0 mm 1 mps 766 mmHg 76%
    Show more